Wind_Speed
11 11 12 12 12 12 12 12 13 13 14 14 14 13 12 12 13 14 14 14 14 14 15 16 17 18 19 19 19 19 18 17 17 16 15 15 14 14 13 12 10 8 7
10 10 11 11 11 12 12 12 13 13 13 13 13 13 13 13 13 14 15 14 15 15 15 16 17 18 20 21 21 20 20 20 19 18 17 17 16 15 15 14 12 10 8
9 9 9 10 10 10 11 11 12 12 12 13 13 13 13 13 14 15 15 15 15 16 16 16 18 19 20 21 22 23 22 22 21 21 20 19 18 18 17 16 14 13 11
7 7 8 8 8 9 9 10 11 11 12 12 12 13 13 13 13 15 16 16 16 17 17 17 18 18 20 20 22 23 24 24 24 23 22 22 21 20 19 19 17 15 14
5 6 7 7 7 8 9 9 10 10 11 11 12 12 13 13 13 14 15 16 17 18 18 18 19 18 19 20 22 24 25 26 26 26 25 24 23 23 22 21 20 19 17
5 6 6 6 7 7 8 8 9 10 10 10 11 11 12 13 13 14 14 15 17 18 18 19 19 20 20 21 21 23 25 26 27 28 27 27 26 26 25 24 23 22 20
5 6 6 6 6 7 7 7 8 9 9 9 10 11 11 12 12 13 13 14 15 17 18 19 20 21 21 22 22 22 23 25 27 28 30 30 29 29 28 27 26 25 24
5 6 6 6 7 7 7 7 8 8 9 9 9 10 10 11 11 12 13 14 15 16 17 19 20 21 22 23 23 24 24 25 27 28 29 31 32 32 31 30 30 28 27
5 5 6 6 6 6 7 8 8 9 9 10 10 10 11 11 12 12 13 13 14 16 17 18 20 21 22 23 24 25 26 26 27 28 30 31 32 34 34 33 33 32 30
4 5 5 6 6 7 8 8 9 9 10 11 11 12 12 12 12 13 14 14 15 16 17 19 20 21 23 24 25 26 27 28 28 29 30 31 32 33 36 36 35 35 34
4 5 5 6 6 7 8 10 10 11 11 12 12 13 14 14 14 14 15 16 17 18 19 20 21 22 23 24 26 27 28 29 30 31 31 32 32 32 34 37 38 38 37
4 4 5 6 7 8 9 11 11 12 13 13 14 15 15 16 17 17 18 18 19 19 20 21 22 23 24 25 26 27 29 30 31 32 33 33 34 34 34 35 38 40 40
5 5 6 7 8 9 10 12 13 14 14 15 16 16 17 18 18 19 19 20 20 21 22 22 23 24 25 26 27 28 30 31 32 33 34 35 35 36 36 36 37 40 42
7 8 9 10 10 11 13 14 14 15 16 17 18 18 19 19 20 20 21 22 22 23 24 24 25 26 27 28 28 29 30 32 33 35 36 36 37 38 38 38 38 38 41
10 10 12 13 14 15 16 17 17 18 18 19 20 20 21 21 22 22 23 23 24 25 26 26 27 27 28 30 30 31 32 33 34 35 37 38 39 40 40 40 41 40 41
12 13 14 15 17 18 19 20 20 20 22 22 22 23 23 23 24 24 24 24 26 27 28 30 30 30 31 32 33 34 34 35 36 37 38 39 41 42 42 43 43 43 43
15 17 18 18 19 21 22 22 23 23 24 24 24 25 25 25 25 25 25 26 27 27 28 30 32 33 33 34 35 36 37 38 38 40 41 41 42 43 44 45 45 45 46
18 19 20 21 22 23 24 24 24 25 26 26 27 27 28 28 27 27 27 28 29 29 29 30 32 33 34 35 36 38 39 40 41 42 43 44 44 45 45 46 47 47 48
22 23 23 24 25 25 26 26 27 27 28 28 29 30 30 30 30 30 30 31 31 31 31 31 32 34 35 36 37 38 40 41 42 44 45 46 47 48 48 48 49 49 50
25 26 26 27 28 28 28 28 29 30 30 31 32 32 32 32 32 32 32 32 32 32 33 32 33 35 36 37 38 39 40 41 42 44 45 47 49 49 50 50 50 51 52
29 29 29 30 30 31 31 31 31 32 33 34 34 34 34 34 34 33 34 34 34 35 35 35 35 36 37 39 39 40 40 41 42 43 45 47 49 50 51 52 52 52 53
31 32 32 33 33 34 34 34 34 35 35 36 36 36 36 36 36 36 36 36 37 37 38 38 38 38 39 41 41 41 41 40 41 43 44 45 47 48 51 52 53 54 54
35 35 35 36 36 37 37 37 37 38 38 38 38 39 39 38 38 38 38 39 39 39 40 40 39 40 41 42 42 42 41 41 41 42 43 43 45 46 48 50 52 53 54
38 38 39 39 39 40 40 40 41 41 41 41 41 41 41 41 41 41 40 40 41 41 42 42 41 41 42 43 43 42 42 41 41 42 43 42 43 45 46 47 49 51 53
41 42 42 42 42 42 43 44 45 45 44 44 44 43 43 43 44 43 43 42 43 43 44 43 42 42 42 42 43 42 42 41 40 40 42 42 42 44 45 45 47 49 51
45 46 46 46 46 46 47 48 49 49 48 47 47 46 46 46 47 46 46 45 45 45 46 45 44 43 42 42 42 42 41 40 39 38 40 41 41 43 43 45 46 47 48
Wind_Direction
293 292 291 291 290 288 287 287 285 283 281 278 276 273 267 262 257 254 253 253 252 252 250 249 241 235 230 225 223 222 220 218 215 213 210 208 205 203 202 200 199 198 196
296 294 291 290 290 290 289 287 285 284 282 280 277 274 271 265 256 253 254 252 251 253 255 251 244 239 233 228 225 224 223 221 219 217 215 213 211 209 208 208 207 206 205
300 297 294 291 290 289 289 288 287 286 284 282 279 274 271 268 258 254 254 253 252 255 255 252 249 245 238 234 229 226 225 223 222 221 220 218 216 215 214 213 213 212 213
305 303 301 300 298 295 293 291 291 290 287 285 282 276 272 269 263 258 257 256 254 254 254 253 251 249 243 239 234 231 228 226 225 224 224 222 221 220 219 218 218 218 219
318 317 314 311 308 305 301 298 296 294 292 289 284 280 276 273 269 265 262 261 260 257 256 253 250 250 248 247 243 238 233 230 228 227 226 226 225 224 224 223 222 222 223
335 331 328 325 321 318 314 309 304 299 295 292 289 286 282 279 275 270 265 263 262 259 257 253 251 252 251 250 250 247 241 236 233 231 229 228 227 227 227 227 226 226 226
341 337 335 333 329 327 324 321 316 310 304 300 297 294 290 286 281 276 270 265 262 259 258 255 254 254 254 253 252 251 247 244 240 236 233 231 230 229 229 229 229 229 230
333 333 335 336 335 334 333 331 328 322 316 312 308 305 300 293 287 281 276 271 266 262 260 258 257 256 255 254 253 250 250 248 246 242 238 235 233 232 231 230 230 231 232
330 337 342 342 344 343 341 338 334 329 324 319 314 310 306 300 295 289 283 277 272 267 264 263 261 258 256 255 253 252 251 249 248 246 244 240 238 235 233 232 232 232 232
341 346 348 345 345 345 343 342 339 333 328 323 320 316 311 306 300 294 288 283 277 273 269 266 264 262 260 258 256 255 253 252 250 249 248 246 244 239 236 234 234 233 233
342 346 345 345 347 347 344 341 340 336 331 327 323 320 315 310 304 298 292 288 283 278 274 271 269 266 264 261 259 257 255 254 253 251 249 248 247 245 242 238 236 235 234
329 335 336 339 340 340 339 338 335 333 330 325 321 317 314 310 306 301 295 290 286 282 278 275 272 270 267 265 262 260 257 255 253 252 251 249 248 246 245 242 238 236 235
308 313 317 322 326 330 331 331 329 328 326 322 318 314 311 307 304 301 298 294 290 285 281 278 274 272 270 267 265 262 260 257 255 253 251 250 249 247 246 244 241 238 237
301 303 307 311 314 317 320 320 320 321 321 320 317 314 311 307 303 300 298 296 293 289 285 281 277 274 271 269 267 265 263 260 258 255 253 251 250 248 246 244 243 241 239
298 300 302 303 305 307 310 311 311 311 313 313 313 312 310 306 303 299 297 294 292 291 288 284 281 277 274 272 269 267 265 262 260 258 256 253 251 249 247 245 243 242 241
298 300 301 302 302 301 302 304 305 305 307 308 308 308 307 305 303 300 297 294 291 290 288 286 284 280 276 273 271 269 266 264 261 259 257 255 253 251 249 246 244 243 242
297 297 297 298 299 300 301 302 302 303 305 306 306 306 305 304 302 301 297 295 293 291 289 287 285 282 279 276 273 270 267 265 262 260 258 256 254 252 250 247 245 244 242
294 294 295 296 297 299 300 301 302 302 303 304 304 304 304 302 300 299 298 296 294 292 290 288 287 285 282 279 276 273 269 266 263 261 259 256 255 253 251 249 247 245 244
291 293 294 295 297 298 299 300 300 301 301 302 302 303 302 301 299 298 298 296 295 294 292 290 288 286 284 282 279 276 272 269 265 262 260 257 255 254 252 250 248 246 245
290 291 292 294 295 297 298 298 298 299 300 300 301 301 301 300 299 298 298 297 296 295 294 292 290 288 286 284 281 278 275 272 269 265 262 259 256 254 253 251 248 246 245
290 291 292 293 294 295 297 297 297 298 299 299 299 299 299 299 298 297 297 297 296 296 296 295 292 290 288 286 283 281 278 275 271 268 265 261 258 255 252 250 248 246 245
289 290 291 292 293 294 296 297 297 298 299 298 298 298 298 297 297 296 296 296 296 296 296 295 294 292 289 287 285 282 279 276 273 270 267 264 260 257 254 251 249 247 245
288 289 291 292 293 294 295 296 296 297 297 297 297 297 297 296 296 295 295 296 296 296 296 296 295 293 290 288 285 282 279 276 273 270 268 264 261 257 254 252 250 247 246
290 291 292 292 293 294 294 294 295 296 296 296 296 296 295 295 294 294 294 294 295 295 295 296 295 293 290 287 284 281 279 276 273 270 267 264 261 258 255 253 251 248 246
291 291 291 291 292 292 293 293 294 294 294 294 294 294 293 293 293 293 293 293 293 294 295 295 294 291 289 286 283 281 278 276 273 270 268 264 260 258 256 254 251 249 247
288 288 289 291 290 291 291 292 292 292 292 293 292 292 292 292 292 292 293 294 293 292 294 294 293 290 288 285 283 280 277 275 272 268 267 265 261 258 255 253 252 250 247
Height
5874 5874 5874 5874 5874 5873 5873 5873 5872 5872 5873 5873 5874 5875 5876 5877 5878 5879 5880 5881 5882 5883 5884 5886 5887 5888 5890 5892 5895 5897 5899 5901 5903 5905 5907 5908 5910 5912 5913 5915 5917 5918 5919
5872 5872 5872 5871 5871 5871 5870 5870 5870 5870 5870 5870 5871 5872 5873 5874 5875 5876 5877 5878 5879 5880 5881 5882 5883 5884 5886 5889 5891 5894 5896 5898 5901 5903 5905 5907 5909 5910 5912 5914 5916 5917 5919
5870 5870 5869 5869 5869 5868 5868 5868 5868 5868 5868 5868 5868 5869 5870 5871 5872 5872 5873 5875 5876 5877 5878 5878 5880 5881 5883 5885 5887 5890 5892 5895 5898 5900 5902 5904 5906 5908 5910 5912 5914 5916 5917
5868 5868 5868 5867 5867 5866 5866 5866 5866 5865 5865 5865 5866 5866 5867 5867 5868 5869 5870 5871 5872 5873 5874 5875 5876 5878 5879 5881 5883 5886 5888 5891 5894 5897 5899 5901 5904 5906 5908 5910 5912 5914 5916
5867 5866 5866 5866 5865 5865 5864 5864 5864 5863 5863 5863 5863 5863 5864 5865 5865 5866 5867 5868 5869 5870 5871 5872 5873 5874 5876 5877 5879 5881 5884 5886 5889 5892 5895 5898 5900 5903 5905 5907 5910 5912 5914
5865 5865 5865 5864 5864 5863 5863 5862 5862 5861 5861 5861 5861 5861 5861 5862 5862 5863 5864 5864 5865 5866 5867 5868 5869 5870 5872 5874 5875 5876 5879 5881 5884 5887 5890 5893 5896 5899 5901 5904 5906 5909 5911
5864 5864 5864 5863 5863 5862 5862 5861 5861 5860 5859 5859 5859 5859 5859 5859 5859 5859 5860 5861 5861 5862 5863 5864 5865 5866 5868 5869 5871 5872 5874 5876 5879 5881 5885 5888 5891 5894 5897 5899 5902 5905 5907
5864 5863 5863 5862 5862 5861 5860 5860 5859 5859 5858 5858 5858 5857 5857 5857 5856 5856 5857 5857 5858 5858 5859 5860 5861 5862 5863 5865 5866 5868 5869 5871 5873 5875 5878 5881 5885 5888 5891 5894 5897 5900 5903
5863 5862 5862 5861 5861 5860 5859 5859 5858 5857 5857 5856 5855 5855 5855 5854 5854 5854 5853 5854 5854 5854 5855 5855 5856 5857 5858 5859 5861 5862 5864 5865 5867 5869 5872 5874 5878 5881 5884 5888 5891 5894 5897
5862 5861 5861 5860 5860 5859 5858 5858 5857 5856 5855 5854 5853 5853 5852 5852 5851 5851 5850 5850 5850 5850 5850 5851 5851 5852 5853 5854 5855 5856 5858 5860 5861 5863 5865 5868 5871 5874 5878 5881 5884 5888 5891
5861 5860 5860 5859 5859 5858 5857 5856 5855 5854 5853 5852 5851 5850 5849 5848 5848 5847 5847 5846 5846 5846 5846 5846 5846 5847 5847 5848 5849 5850 5852 5853 5855 5857 5859 5861 5864 5867 5870 5873 5877 5880 5884
5860 5859 5859 5858 5857 5856 5855 5854 5853 5852 5851 5850 5848 5847 5846 5845 5844 5843 5842 5842 5841 5841 5841 5841 5841 5841 5841 5842 5843 5844 5845 5846 5848 5849 5851 5854 5856 5859 5862 5865 5868 5872 5875
5858 5858 5857 5856 5855 5854 5853 5852 5850 5849 5848 5846 5845 5844 5842 5841 5839 5838 5837 5836 5836 5835 5835 5835 5834 5834 5835 5835 5836 5836 5837 5839 5840 5842 5844 5846 5848 5850 5853 5856 5859 5863 5867
5856 5855 5855 5854 5853 5852 5850 5849 5848 5846 5845 5843 5841 5840 5838 5836 5835 5833 5832 5831 5830 5829 5829 5828 5828 5827 5827 5828 5828 5829 5829 5830 5832 5833 5835 5837 5839 5842 5844 5847 5850 5853 5857
5853 5853 5852 5851 5849 5848 5847 5846 5844 5842 5841 5839 5837 5835 5833 5831 5830 5828 5827 5825 5824 5822 5821 5820 5820 5820 5820 5820 5820 5820 5821 5822 5823 5824 5825 5827 5830 5832 5835 5838 5841 5844 5847
5850 5849 5848 5847 5846 5844 5843 5841 5840 5838 5836 5834 5832 5830 5828 5826 5824 5822 5821 5819 5817 5816 5814 5812 5811 5811 5811 5811 5811 5811 5811 5812 5813 5814 5815 5817 5819 5822 5824 5827 5830 5834 5837
5846 5845 5844 5842 5841 5840 5838 5836 5834 5832 5830 5828 5826 5824 5822 5819 5817 5815 5814 5812 5810 5808 5807 5804 5803 5801 5801 5801 5801 5801 5801 5801 5802 5803 5804 5806 5808 5810 5813 5816 5819 5822 5826
5841 5840 5839 5837 5836 5834 5832 5830 5828 5826 5824 5822 5819 5817 5815 5812 5810 5808 5806 5804 5802 5800 5799 5796 5794 5792 5791 5790 5790 5790 5790 5790 5790 5791 5792 5794 5796 5798 5801 5804 5807 5811 5814
5835 5834 5833 5831 5829 5828 5826 5824 5821 5819 5817 5815 5812 5810 5807 5805 5802 5800 5797 5795 5793 5791 5789 5787 5785 5783 5781 5780 5779 5778 5778 5778 5778 5778 5780 5781 5783 5785 5788 5791 5794 5798 5802
5829 5827 5826 5824 5822 5820 5818 5816 5814 5812 5809 5807 5804 5802 5799 5796 5794 5791 5789 5786 5784 5781 5779 5777 5775 5772 5770 5768 5767 5766 5766 5765 5765 5765 5766 5767 5769 5771 5774 5778 5781 5784 5788
5821 5820 5818 5816 5814 5812 5810 5808 5806 5804 5801 5798 5796 5793 5790 5787 5784 5782 5779 5776 5774 5771 5768 5766 5764 5762 5759 5756 5755 5754 5754 5753 5752 5752 5752 5753 5755 5758 5759 5762 5766 5770 5774
5813 5811 5809 5807 5806 5803 5801 5799 5797 5795 5792 5789 5786 5783 5781 5778 5775 5772 5769 5766 5763 5760 5757 5755 5753 5750 5747 5744 5743 5742 5741 5740 5740 5739 5739 5740 5740 5743 5745 5748 5751 5755 5759
5803 5802 5800 5798 5796 5794 5791 5789 5786 5784 5782 5779 5776 5773 5770 5767 5764 5761 5759 5756 5752 5749 5746 5743 5741 5738 5735 5732 5730 5729 5727 5727 5727 5725 5725 5726 5726 5728 5730 5733 5736 5740 5744
5794 5792 5790 5788 5786 5784 5781 5778 5775 5773 5771 5768 5765 5762 5759 5756 5753 5750 5747 5744 5741 5737 5733 5731 5729 5726 5722 5719 5716 5715 5714 5713 5713 5712 5711 5713 5713 5714 5717 5719 5722 5726 5730
5785 5782 5780 5777 5775 5773 5770 5766 5763 5761 5759 5756 5753 5750 5747 5744 5740 5737 5735 5732 5729 5724 5721 5718 5716 5713 5709 5706 5703 5702 5701 5700 5700 5699 5698 5699 5701 5701 5704 5706 5708 5711 5715
5774 5771 5768 5766 5763 5761 5758 5754 5750 5748 5745 5743 5740 5737 5733 5730 5727 5723 5721 5718 5715 5712 5708 5705 5702 5699 5696 5693 5690 5689 5687 5687 5687 5687 5685 5685 5687 5688 5691 5693 5694 5697 5701